QPF
0.00 0.00 0.00 0.00 0.00 0.00 0.00 0.00 0.00 0.00 0.00 0.00 0.00 0.00 0.00 0.00 0.00 0.00 0.00 0.00 0.00 0.00 0.00 0.00 0.00 0.00 0.00 0.00 0.00 0.00 0.00 0.00 0.00 0.00 0.00 0.00 0.00 0.00 0.00 0.00 0.00 0.00 0.00
0.00 0.00 0.00 0.00 0.00 0.00 0.00 0.00 0.00 0.00 0.00 0.00 0.00 0.00 0.00 0.00 0.00 0.00 0.00 0.00 0.00 0.00 0.00 0.00 0.00 0.00 0.00 0.00 0.00 0.00 0.00 0.00 0.00 0.00 0.00 0.00 0.00 0.00 0.00 0.00 0.00 0.00 0.00
0.00 0.00 0.00 0.00 0.00 0.00 0.00 0.00 0.00 0.00 0.00 0.00 0.00 0.00 0.00 0.00 0.00 0.00 0.00 0.00 0.00 0.00 0.00 0.00 0.00 0.00 0.00 0.00 0.00 0.00 0.00 0.00 0.00 0.00 0.00 0.00 0.00 0.00 0.00 0.00 0.00 0.00 0.00
0.00 0.00 0.00 0.00 0.00 0.00 0.00 0.00 0.00 0.00 0.00 0.00 0.00 0.00 0.00 0.00 0.00 0.00 0.00 0.00 0.00 0.00 0.00 0.00 0.00 0.00 0.00 0.00 0.00 0.00 0.00 0.00 0.00 0.00 0.00 0.00 0.00 0.00 0.00 0.00 0.00 0.00 0.00
0.00 0.00 0.00 0.00 0.00 0.00 0.00 0.00 0.00 0.00 0.00 0.00 0.00 0.00 0.00 0.00 0.00 0.00 0.00 0.00 0.00 0.00 0.00 0.00 0.00 0.00 0.00 0.00 0.00 0.00 0.00 0.00 0.00 0.00 0.00 0.00 0.00 0.00 0.00 0.00 0.00 0.00 0.00
0.00 0.00 0.00 0.00 0.00 0.00 0.00 0.00 0.00 0.00 0.00 0.00 0.00 0.00 0.00 0.00 0.00 0.00 0.00 0.00 0.00 0.00 0.00 0.00 0.00 0.00 0.00 0.00 0.00 0.00 0.00 0.00 0.00 0.00 0.00 0.00 0.00 0.00 0.00 0.00 0.00 0.00 0.00
0.00 0.00 0.00 0.00 0.00 0.00 0.00 0.00 0.00 0.00 0.00 0.00 0.00 0.00 0.00 0.00 0.00 0.00 0.00 0.00 0.00 0.00 0.00 0.00 0.00 0.00 0.00 0.00 0.00 0.00 0.00 0.00 0.00 0.00 0.00 0.00 0.00 0.00 0.00 0.00 0.00 0.00 0.00
0.00 0.00 0.00 0.00 0.00 0.00 0.00 0.00 0.00 0.00 0.00 0.00 0.00 0.00 0.00 0.00 0.00 0.00 0.00 0.00 0.00 0.00 0.00 0.00 0.00 0.00 0.00 0.00 0.00 0.00 0.00 0.00 0.00 0.00 0.00 0.00 0.00 0.00 0.00 0.00 0.00 0.00 0.00
0.00 0.00 0.00 0.00 0.00 0.00 0.00 0.00 0.00 0.00 0.00 0.00 0.00 0.00 0.00 0.00 0.00 0.00 0.00 0.00 0.00 0.00 0.00 0.00 0.00 0.00 0.00 0.00 0.00 0.00 0.00 0.00 0.00 0.00 0.00 0.00 0.00 0.00 0.00 0.00 0.00 0.00 0.00
0.00 0.00 0.00 0.00 0.00 0.00 0.00 0.00 0.00 0.00 0.00 0.00 0.00 0.00 0.00 0.00 0.00 0.00 0.00 0.00 0.00 0.00 0.00 0.00 0.00 0.00 0.00 0.00 0.00 0.00 0.00 0.00 0.00 0.00 0.00 0.00 0.00 0.00 0.00 0.00 0.00 0.00 0.00
0.00 0.00 0.00 0.00 0.00 0.00 0.00 0.00 0.00 0.00 0.00 0.00 0.00 0.00 0.00 0.00 0.00 0.00 0.00 0.00 0.00 0.00 0.00 0.00 0.00 0.00 0.00 0.00 0.00 0.00 0.00 0.00 0.00 0.00 0.00 0.00 0.00 0.00 0.00 0.00 0.00 0.00 0.00
0.00 0.00 0.00 0.00 0.00 0.00 0.00 0.00 0.00 0.00 0.00 0.00 0.00 0.00 0.00 0.00 0.00 0.00 0.00 0.00 0.00 0.00 0.00 0.00 0.00 0.00 0.00 0.00 0.00 0.00 0.00 0.00 0.00 0.00 0.00 0.00 0.00 0.00 0.00 0.00 0.00 0.00 0.00
0.00 0.00 0.00 0.00 0.00 0.00 0.00 0.00 0.00 0.00 0.00 0.00 0.00 0.00 0.00 0.00 0.00 0.00 0.00 0.00 0.00 0.00 0.00 0.00 0.00 0.00 0.00 0.00 0.00 0.00 0.00 0.00 0.00 0.00 0.00 0.00 0.00 0.00 0.00 0.00 0.00 0.00 0.00
0.00 0.00 0.00 0.00 0.00 0.00 0.00 0.00 0.00 0.00 0.00 0.00 0.00 0.00 0.00 0.00 0.00 0.00 0.00 0.00 0.00 0.00 0.00 0.00 0.00 0.00 0.00 0.01 0.01 0.01 0.00 0.00 0.00 0.00 0.00 0.00 0.00 0.00 0.00 0.00 0.00 0.00 0.00
0.00 0.00 0.00 0.00 0.00 0.00 0.00 0.00 0.00 0.00 0.00 0.00 0.00 0.00 0.00 0.00 0.00 0.00 0.00 0.00 0.00 0.00 0.00 0.00 0.00 0.00 0.00 0.00 0.00 0.01 0.00 0.01 0.01 0.00 0.00 0.00 0.00 0.00 0.00 0.00 0.00 0.00 0.00
0.00 0.00 0.00 0.00 0.00 0.00 0.00 0.00 0.00 0.00 0.00 0.00 0.00 0.00 0.00 0.01 0.01 0.00 0.00 0.01 0.01 0.01 0.01 0.00 0.00 0.00 0.00 0.00 0.01 0.01 0.00 0.00 0.00 0.00 0.00 0.00 0.00 0.00 0.00 0.00 0.00 0.00 0.00
0.00 0.00 0.00 0.00 0.00 0.00 0.00 0.00 0.00 0.00 0.00 0.00 0.00 0.00 0.00 0.00 0.01 0.01 0.01 0.01 0.01 0.01 0.01 0.00 0.00 0.00 0.00 0.00 0.00 0.01 0.01 0.00 0.00 0.00 0.00 0.00 0.00 0.00 0.00 0.00 0.00 0.00 0.00
0.00 0.00 0.00 0.00 0.00 0.00 0.00 0.00 0.00 0.00 0.00 0.00 0.00 0.00 0.00 0.00 0.00 0.00 0.00 0.01 0.00 0.00 0.00 0.00 0.00 0.00 0.00 0.00 0.00 0.00 0.01 0.00 0.00 0.00 0.00 0.00 0.00 0.00 0.00 0.00 0.00 0.00 0.00
0.00 0.00 0.00 0.00 0.00 0.00 0.00 0.00 0.00 0.00 0.00 0.00 0.00 0.00 0.00 0.00 0.00 0.00 0.00 0.00 0.00 0.00 0.00 0.00 0.00 0.00 0.00 0.00 0.00 0.00 0.00 0.00 0.00 0.00 0.00 0.00 0.00 0.00 0.00 0.00 0.00 0.00 0.00
0.00 0.00 0.00 0.00 0.00 0.00 0.00 0.00 0.00 0.00 0.00 0.00 0.00 0.00 0.00 0.00 0.00 0.00 0.00 0.00 0.00 0.00 0.00 0.00 0.00 0.00 0.00 0.00 0.00 0.00 0.00 0.00 0.00 0.00 0.00 0.00 0.00 0.00 0.00 0.00 0.00 0.00 0.00
0.00 0.00 0.00 0.00 0.00 0.00 0.00 0.00 0.00 0.00 0.00 0.00 0.00 0.00 0.00 0.00 0.00 0.00 0.00 0.00 0.00 0.00 0.00 0.00 0.00 0.00 0.00 0.00 0.00 0.00 0.00 0.00 0.00 0.00 0.00 0.00 0.00 0.00 0.00 0.00 0.00 0.00 0.00
0.00 0.00 0.00 0.00 0.00 0.00 0.00 0.00 0.00 0.00 0.00 0.00 0.00 0.00 0.00 0.00 0.00 0.00 0.00 0.00 0.00 0.00 0.00 0.00 0.00 0.00 0.00 0.00 0.00 0.00 0.00 0.00 0.00 0.00 0.00 0.00 0.00 0.00 0.00 0.00 0.00 0.00 0.00
0.00 0.00 0.00 0.00 0.00 0.00 0.00 0.00 0.00 0.00 0.00 0.00 0.00 0.00 0.00 0.00 0.00 0.00 0.00 0.00 0.00 0.00 0.00 0.00 0.00 0.00 0.00 0.00 0.00 0.00 0.00 0.00 0.00 0.00 0.00 0.00 0.00 0.00 0.00 0.00 0.00 0.00 0.00
0.00 0.00 0.00 0.00 0.00 0.00 0.00 0.00 0.00 0.00 0.00 0.00 0.00 0.00 0.00 0.00 0.00 0.00 0.00 0.00 0.00 0.00 0.00 0.00 0.00 0.00 0.00 0.00 0.00 0.00 0.00 0.00 0.00 0.00 0.00 0.00 0.00 0.00 0.00 0.00 0.00 0.00 0.00
0.00 0.00 0.00 0.00 0.00 0.00 0.00 0.00 0.00 0.00 0.00 0.00 0.00 0.00 0.00 0.00 0.00 0.00 0.00 0.00 0.00 0.00 0.00 0.00 0.00 0.00 0.00 0.00 0.00 0.00 0.00 0.00 0.00 0.00 0.00 0.00 0.00 0.00 0.00 0.00 0.00 0.00 0.00
0.00 0.00 0.00 0.00 0.00 0.00 0.00 0.00 0.00 0.00 0.00 0.00 0.00 0.00 0.00 0.00 0.00 0.00 0.00 0.00 0.00 0.00 0.00 0.00 0.00 0.00 0.00 0.00 0.00 0.00 0.00 0.00 0.00 0.00 0.00 0.00 0.00 0.00 0.00 0.00 0.00 0.00 0.00
MSLP
1025.35 1025.33 1025.63 1025.73 1025.15 1025.14 1025.00 1024.71 1024.47 1023.82 1023.39 1022.83 1022.32 1021.69 1021.18 1020.26 1019.99 1019.67 1019.31 1018.79 1018.77 1018.76 1018.19 1017.86 1017.44 1016.92 1016.68 1016.53 1016.67 1016.66 1016.90 1016.96 1016.84 1016.87 1017.13 1017.15 1017.44 1017.78 1018.42 1018.98 1019.60 1020.11 1020.39
1025.53 1025.59 1025.37 1025.72 1025.24 1025.02 1024.86 1024.43 1024.31 1023.93 1023.48 1023.00 1022.15 1021.75 1021.14 1020.58 1020.53 1020.07 1019.61 1018.92 1018.60 1018.12 1018.16 1017.79 1017.10 1016.87 1016.22 1015.95 1015.82 1015.80 1015.88 1015.95 1016.09 1016.16 1016.70 1016.88 1016.73 1016.72 1017.23 1018.08 1018.70 1019.22 1019.70
1025.13 1025.17 1025.15 1025.28 1024.86 1024.67 1024.71 1024.59 1023.84 1023.72 1023.19 1022.54 1022.15 1022.01 1020.94 1020.46 1020.39 1020.22 1019.57 1018.75 1018.16 1017.90 1017.36 1016.81 1016.62 1016.48 1015.95 1015.51 1015.16 1014.99 1014.90 1015.05 1015.17 1015.17 1015.65 1016.31 1016.48 1016.43 1017.12 1017.60 1017.85 1018.62 1019.47
1024.81 1024.98 1025.11 1024.94 1024.66 1024.61 1024.53 1024.31 1023.83 1023.41 1022.87 1022.47 1021.83 1021.35 1020.84 1020.06 1019.91 1019.53 1018.94 1018.37 1017.70 1017.27 1016.83 1016.42 1015.85 1015.43 1015.45 1015.03 1014.65 1014.11 1014.18 1014.20 1014.44 1014.38 1014.95 1015.24 1015.43 1015.74 1016.20 1016.80 1017.51 1017.68 1018.24
1024.78 1024.95 1024.94 1024.70 1024.48 1024.30 1024.01 1023.50 1023.06 1022.96 1022.63 1021.97 1021.49 1020.93 1020.44 1019.83 1019.36 1018.79 1018.43 1017.81 1017.09 1016.32 1015.89 1015.55 1015.20 1014.63 1013.94 1014.33 1014.10 1013.31 1013.31 1013.48 1013.59 1013.39 1013.70 1014.15 1014.21 1014.62 1014.61 1015.48 1015.98 1016.59 1017.10
1024.98 1025.11 1024.85 1024.57 1024.46 1024.32 1023.98 1023.61 1023.24 1022.74 1022.11 1021.54 1021.04 1020.44 1019.72 1019.14 1018.66 1018.55 1018.17 1017.23 1016.62 1015.71 1014.93 1014.25 1014.06 1013.80 1013.27 1013.03 1012.76 1012.64 1012.62 1012.62 1012.27 1012.46 1012.39 1011.98 1011.88 1012.07 1013.21 1013.72 1014.62 1015.96 1016.58
1025.33 1025.19 1025.14 1025.00 1024.73 1024.36 1023.94 1023.53 1023.00 1022.39 1021.77 1021.15 1020.42 1019.85 1019.01 1018.43 1018.14 1017.90 1017.45 1016.80 1015.99 1014.84 1014.18 1013.58 1013.00 1012.84 1012.36 1011.64 1011.33 1011.47 1011.16 1011.24 1010.94 1010.98 1010.77 1009.97 1010.62 1010.70 1011.60 1012.43 1012.70 1012.88 1012.84
1025.51 1025.54 1025.34 1025.18 1025.05 1024.73 1024.27 1023.75 1023.08 1022.47 1021.68 1020.81 1019.89 1019.36 1018.69 1017.53 1017.33 1017.14 1016.73 1016.14 1015.21 1014.34 1013.80 1013.10 1012.61 1011.73 1010.99 1010.88 1010.60 1010.09 1009.84 1009.88 1009.65 1009.74 1009.53 1008.63 1009.03 1009.58 1009.92 1010.20 1010.90 1011.43 1012.69
1025.72 1025.64 1025.53 1025.56 1025.37 1025.03 1024.64 1024.10 1023.46 1022.71 1021.84 1021.02 1020.20 1019.31 1018.65 1017.22 1017.18 1016.63 1016.16 1015.28 1014.35 1013.50 1012.95 1012.26 1011.64 1010.61 1009.94 1009.93 1009.62 1008.97 1008.63 1008.00 1008.07 1008.03 1008.09 1008.14 1008.42 1008.55 1008.78 1009.89 1010.20 1011.12 1011.60
1025.82 1025.91 1025.93 1025.85 1025.63 1025.18 1024.65 1024.08 1023.47 1022.86 1021.79 1020.99 1020.07 1019.60 1018.80 1017.65 1017.42 1016.66 1015.99 1015.02 1013.65 1012.69 1011.85 1010.98 1010.40 1009.70 1008.94 1008.59 1008.34 1007.77 1007.32 1006.11 1006.70 1006.70 1006.58 1006.73 1007.09 1007.46 1007.83 1007.52 1008.35 1008.82 1009.21
1025.98 1026.05 1026.04 1025.91 1025.64 1025.15 1024.34 1023.79 1023.05 1022.26 1021.37 1020.65 1019.74 1019.14 1018.47 1017.74 1016.93 1016.18 1015.26 1014.17 1013.19 1011.91 1010.78 1009.74 1008.89 1008.33 1007.57 1006.92 1006.45 1005.97 1005.11 1005.20 1005.12 1005.23 1005.21 1005.33 1005.67 1005.75 1006.15 1006.39 1006.64 1006.62 1007.06
1026.08 1026.03 1025.88 1025.62 1025.27 1024.66 1024.01 1023.21 1022.60 1021.87 1020.86 1019.85 1018.94 1018.09 1017.42 1016.73 1016.07 1015.22 1014.34 1013.37 1012.44 1011.33 1010.19 1009.26 1008.39 1007.60 1006.51 1005.55 1004.81 1003.99 1003.53 1003.58 1003.75 1003.84 1004.05 1003.89 1004.01 1004.02 1004.35 1004.88 1005.27 1005.54 1005.91
1026.11 1025.94 1025.46 1024.98 1024.56 1024.06 1023.46 1022.64 1021.94 1021.08 1020.16 1019.10 1018.17 1017.17 1016.23 1015.51 1014.75 1013.89 1012.94 1012.20 1011.46 1010.43 1009.45 1008.51 1007.50 1006.63 1005.72 1004.45 1003.42 1002.54 1002.04 1001.81 1001.71 1001.76 1001.79 1002.07 1002.36 1002.92 1003.51 1003.79 1004.35 1005.18 1005.65
1025.98 1025.52 1024.91 1024.42 1023.84 1023.34 1022.76 1022.10 1021.25 1020.26 1019.37 1018.38 1017.22 1015.91 1014.67 1013.70 1012.84 1012.02 1011.24 1010.39 1009.51 1008.60 1007.75 1006.84 1006.14 1005.41 1004.68 1003.43 1002.44 1000.84 1000.24 1000.26 1000.27 1000.09 1000.22 1000.69 1001.47 1002.13 1002.47 1003.02 1003.71 1004.64 1005.58
1025.57 1025.04 1024.43 1023.89 1023.31 1022.62 1022.13 1021.40 1020.38 1019.25 1018.35 1016.71 1015.34 1014.18 1012.80 1011.58 1010.92 1009.89 1008.72 1007.85 1007.15 1006.48 1005.91 1005.41 1004.81 1003.98 1003.06 1002.29 1001.36 999.48 998.84 998.93 999.06 999.10 999.10 999.52 1000.14 1000.92 1001.43 1002.15 1003.02 1003.96 1004.66
1025.21 1024.50 1023.92 1023.33 1022.64 1021.94 1021.17 1020.21 1019.12 1018.01 1016.74 1015.52 1014.24 1013.01 1011.70 1010.50 1009.20 1008.16 1007.12 1006.06 1004.98 1004.03 1003.45 1003.29 1002.76 1002.35 1001.88 1001.34 1000.39 999.21 998.20 998.09 998.03 997.93 998.01 998.34 999.13 999.88 1000.72 1001.53 1002.11 1002.92 1003.77
1024.90 1024.16 1023.44 1022.82 1022.06 1021.32 1020.60 1019.68 1018.24 1016.23 1015.53 1014.58 1013.55 1012.24 1010.92 1009.43 1007.84 1006.59 1005.59 1004.58 1003.46 1002.42 1001.95 1001.62 1001.22 1000.94 1000.50 1000.03 999.57 998.70 997.52 996.98 996.95 996.90 996.96 997.52 998.23 998.99 999.76 1000.54 1001.30 1002.15 1003.23
1024.28 1023.65 1023.11 1022.43 1021.61 1020.85 1020.15 1019.11 1018.03 1016.82 1015.30 1013.32 1012.13 1011.46 1009.94 1008.77 1007.39 1005.79 1004.51 1003.27 1002.45 1001.60 1000.99 1000.30 999.93 999.63 999.32 998.97 998.28 997.60 996.88 996.19 996.11 996.03 996.13 996.60 997.28 997.91 998.80 999.70 1000.56 1001.34 1002.36
1023.75 1023.04 1022.55 1021.99 1021.00 1020.32 1019.64 1018.61 1017.54 1016.35 1015.19 1013.87 1012.18 1010.84 1010.11 1008.65 1007.06 1006.11 1005.14 1004.24 1002.93 1001.64 1000.40 999.38 998.72 998.17 997.64 997.11 996.96 996.55 995.96 995.45 995.37 995.47 995.64 995.92 996.49 997.24 998.11 998.97 999.90 1000.77 1001.67
1023.02 1022.51 1021.97 1021.58 1020.65 1019.98 1019.30 1018.31 1017.12 1016.02 1014.87 1013.78 1012.65 1011.48 1010.10 1008.25 1007.58 1006.45 1005.57 1004.61 1003.43 1002.16 1000.85 999.63 997.96 996.63 996.16 995.55 995.54 995.21 994.93 994.81 994.84 994.94 995.11 995.53 996.12 996.79 997.69 998.62 999.63 1000.45 1001.35
1022.60 1022.07 1021.81 1021.21 1020.43 1019.94 1019.23 1018.28 1017.24 1016.16 1015.08 1014.03 1012.90 1011.67 1009.83 1009.19 1008.25 1007.29 1006.18 1005.11 1003.97 1002.65 1001.20 999.64 997.85 996.38 995.31 994.44 994.40 994.34 994.19 994.29 994.44 994.73 995.11 995.63 996.14 996.88 997.68 998.58 999.48 1000.33 1001.25
1022.21 1022.00 1021.61 1020.91 1020.26 1019.69 1019.03 1018.14 1017.12 1016.18 1015.22 1014.13 1012.84 1011.69 1010.32 1009.51 1008.68 1007.73 1006.74 1005.71 1004.64 1003.50 1002.19 1000.78 999.26 997.77 996.66 995.65 994.87 994.44 994.38 994.55 994.80 995.13 995.55 996.05 996.58 997.32 998.08 998.98 999.88 1000.74 1001.59
1021.86 1021.77 1021.33 1020.61 1020.04 1019.52 1018.79 1017.96 1017.13 1016.23 1015.27 1014.32 1013.28 1012.16 1011.04 1010.10 1009.23 1008.31 1007.37 1006.30 1005.23 1004.08 1002.84 1001.61 1000.44 999.33 998.23 997.32 996.57 996.07 995.93 995.90 995.84 995.92 996.26 996.81 997.41 998.02 998.70 999.48 1000.27 1001.16 1001.95
1021.61 1021.60 1021.15 1020.38 1019.96 1019.52 1018.94 1018.16 1017.31 1016.50 1015.73 1014.77 1013.84 1012.88 1011.93 1010.98 1010.01 1009.02 1008.07 1007.07 1006.00 1004.97 1003.91 1002.77 1001.74 1000.80 999.83 998.80 998.14 997.68 997.42 997.22 997.08 997.23 997.45 997.83 998.40 998.97 999.57 1000.30 1001.02 1001.77 1002.45
1021.33 1021.43 1020.90 1020.42 1020.22 1019.75 1019.14 1018.40 1017.61 1016.90 1016.17 1015.32 1014.47 1013.64 1012.79 1011.85 1010.83 1009.79 1008.85 1007.93 1006.93 1005.92 1004.90 1003.89 1002.93 1001.89 1001.04 1000.25 999.73 999.22 998.80 998.42 998.39 998.45 998.67 999.01 999.46 999.90 1000.41 1001.14 1001.84 1002.49 1003.08
1021.03 1020.99 1020.72 1020.49 1020.24 1019.85 1019.38 1018.75 1018.06 1017.32 1016.60 1015.77 1015.02 1014.28 1013.50 1012.57 1011.55 1010.61 1009.68 1008.77 1007.89 1006.93 1006.03 1005.08 1004.11 1003.13 1002.20 1001.40 1000.82 1000.36 1000.00 999.81 999.85 999.83 999.91 1000.16 1000.56 1001.03 1001.46 1002.22 1002.75 1003.33 1003.98
Thickness
5415 5414 5411 5409 5413 5412 5410 5411 5412 5416 5419 5423 5427 5431 5434 5442 5445 5449 5451 5454 5457 5457 5463 5469 5475 5480 5486 5489 5487 5489 5492 5491 5505 5507 5505 5509 5511 5512 5508 5505 5502 5502 5503
5393 5392 5393 5387 5390 5389 5389 5390 5390 5392 5394 5398 5405 5407 5412 5418 5417 5421 5425 5430 5434 5438 5438 5444 5453 5456 5466 5470 5472 5476 5477 5477 5484 5495 5483 5488 5497 5502 5498 5494 5490 5489 5490
5376 5373 5369 5365 5371 5369 5364 5363 5367 5369 5373 5377 5381 5380 5389 5392 5394 5395 5400 5409 5415 5418 5423 5428 5433 5434 5443 5449 5453 5459 5462 5462 5464 5471 5473 5469 5476 5481 5479 5478 5480 5477 5471
5352 5349 5346 5344 5344 5342 5338 5338 5341 5344 5348 5349 5355 5360 5363 5368 5370 5373 5378 5384 5393 5399 5403 5408 5415 5420 5423 5427 5432 5441 5441 5445 5445 5452 5450 5454 5461 5465 5464 5463 5461 5464 5463
5322 5318 5316 5315 5314 5314 5313 5314 5315 5313 5318 5324 5328 5331 5334 5341 5347 5348 5351 5357 5366 5376 5383 5388 5393 5402 5410 5409 5412 5423 5423 5425 5428 5436 5439 5436 5445 5450 5459 5456 5454 5451 5450
5296 5292 5288 5287 5285 5282 5283 5283 5283 5284 5289 5294 5300 5304 5310 5314 5319 5318 5318 5326 5336 5347 5360 5370 5374 5378 5387 5391 5396 5402 5405 5406 5414 5417 5426 5436 5446 5451 5445 5445 5439 5429 5433
5269 5266 5261 5258 5257 5256 5256 5257 5258 5260 5263 5265 5271 5273 5281 5288 5291 5289 5289 5290 5301 5318 5330 5340 5350 5357 5362 5372 5377 5379 5388 5394 5401 5403 5413 5431 5428 5436 5434 5429 5431 5434 5445
5253 5247 5241 5237 5232 5230 5230 5230 5232 5234 5238 5242 5247 5248 5249 5263 5261 5254 5254 5256 5270 5284 5294 5307 5317 5334 5344 5347 5350 5358 5367 5372 5385 5389 5397 5415 5417 5417 5421 5426 5422 5421 5411
5234 5229 5223 5215 5210 5207 5204 5203 5203 5204 5208 5211 5214 5218 5219 5234 5228 5227 5223 5225 5236 5251 5262 5274 5283 5300 5318 5321 5322 5333 5343 5362 5369 5373 5382 5392 5393 5401 5406 5400 5404 5401 5403
5216 5208 5200 5193 5187 5187 5185 5182 5179 5177 5181 5184 5188 5185 5188 5197 5193 5195 5194 5197 5208 5220 5234 5245 5255 5266 5281 5290 5291 5305 5317 5352 5350 5355 5364 5373 5379 5381 5386 5399 5397 5398 5407
5197 5189 5180 5173 5168 5164 5164 5161 5160 5161 5162 5162 5164 5163 5164 5166 5168 5168 5170 5173 5179 5192 5203 5217 5231 5241 5252 5262 5269 5280 5305 5323 5325 5331 5342 5353 5360 5370 5374 5383 5389 5397 5399
5178 5170 5163 5157 5151 5148 5145 5144 5142 5142 5144 5148 5151 5155 5155 5155 5154 5152 5150 5151 5155 5162 5174 5185 5197 5210 5225 5239 5247 5263 5281 5290 5293 5304 5317 5336 5346 5357 5364 5368 5373 5379 5385
5160 5153 5150 5146 5141 5136 5134 5134 5132 5132 5135 5139 5142 5144 5146 5144 5141 5137 5133 5131 5133 5139 5149 5159 5170 5180 5193 5211 5228 5245 5257 5265 5274 5285 5302 5319 5333 5336 5336 5345 5350 5352 5359
5145 5142 5139 5136 5133 5131 5129 5126 5124 5124 5125 5127 5131 5136 5139 5139 5133 5129 5124 5120 5120 5123 5133 5143 5151 5162 5172 5188 5204 5227 5240 5246 5255 5268 5282 5297 5298 5305 5315 5322 5325 5328 5332
5137 5133 5130 5128 5126 5127 5124 5120 5119 5120 5120 5128 5132 5136 5139 5140 5132 5126 5123 5121 5118 5117 5119 5126 5136 5147 5160 5172 5184 5208 5221 5230 5237 5250 5261 5269 5275 5281 5289 5295 5299 5303 5309
5127 5126 5123 5122 5123 5123 5121 5121 5118 5118 5120 5122 5125 5129 5132 5131 5130 5124 5119 5117 5118 5118 5119 5124 5132 5138 5146 5157 5170 5186 5200 5210 5219 5231 5242 5250 5252 5258 5263 5266 5274 5283 5289
5115 5116 5116 5117 5117 5117 5116 5114 5118 5123 5117 5117 5118 5121 5123 5126 5127 5124 5118 5117 5116 5118 5117 5120 5126 5132 5138 5147 5157 5170 5185 5196 5203 5211 5220 5226 5232 5237 5242 5247 5254 5261 5264
5106 5107 5108 5110 5111 5112 5109 5110 5110 5110 5113 5118 5117 5116 5119 5118 5119 5120 5118 5118 5115 5114 5114 5119 5123 5129 5134 5140 5150 5160 5171 5182 5187 5195 5202 5208 5215 5222 5227 5233 5236 5241 5245
5101 5103 5103 5103 5106 5107 5105 5106 5106 5106 5106 5107 5112 5111 5108 5108 5113 5110 5105 5101 5104 5108 5113 5119 5124 5130 5137 5144 5148 5155 5165 5173 5178 5181 5187 5194 5202 5208 5212 5217 5219 5223 5225
5096 5097 5099 5098 5100 5100 5098 5099 5102 5101 5102 5101 5100 5099 5100 5107 5100 5099 5095 5092 5094 5098 5103 5110 5124 5137 5142 5149 5150 5157 5161 5164 5168 5172 5178 5181 5186 5192 5196 5199 5202 5205 5209
5090 5092 5091 5092 5093 5091 5090 5091 5092 5092 5092 5091 5090 5090 5097 5091 5090 5089 5088 5087 5088 5092 5098 5108 5121 5134 5144 5152 5153 5155 5157 5158 5160 5161 5164 5167 5171 5175 5179 5183 5186 5188 5191
5083 5084 5085 5086 5087 5085 5084 5084 5084 5083 5083 5083 5083 5083 5086 5082 5081 5082 5082 5082 5082 5084 5088 5096 5106 5115 5123 5132 5140 5144 5146 5146 5146 5147 5150 5152 5155 5157 5161 5164 5166 5169 5172
5076 5078 5080 5082 5082 5080 5079 5078 5077 5076 5074 5074 5073 5072 5072 5071 5070 5072 5074 5076 5078 5080 5083 5087 5093 5100 5107 5113 5119 5123 5125 5127 5130 5133 5135 5136 5138 5140 5144 5147 5149 5151 5155
5069 5070 5073 5075 5074 5073 5071 5070 5069 5067 5063 5062 5060 5059 5058 5058 5059 5062 5064 5068 5071 5073 5076 5079 5082 5087 5094 5100 5104 5106 5108 5112 5115 5117 5119 5121 5123 5125 5128 5129 5133 5135 5138
5062 5064 5065 5066 5063 5063 5062 5061 5060 5056 5053 5052 5050 5048 5047 5047 5048 5051 5054 5058 5062 5065 5069 5072 5075 5080 5084 5088 5090 5092 5095 5097 5100 5102 5103 5105 5107 5110 5114 5116 5118 5120 5122
5058 5059 5059 5057 5056 5054 5051 5051 5049 5046 5044 5043 5042 5040 5039 5041 5042 5043 5045 5048 5052 5056 5060 5063 5067 5071 5075 5080 5082 5084 5084 5085 5086 5088 5091 5092 5093 5095 5098 5099 5101 5102 5103